Find Starlink 33843

NORAD ID: 63507 Int'l Des: 2025-071 Owner: SPXS Country: US Constellation: starlink operational
LEOCIRCULAR

Live-Position

3D-Globus wird geladen...

Über Starlink 33843

Beschreibung wird geladen...

Nächste Überflüge

Passes for default location (London). Set your location on the main map for personalized predictions.

Höhenverlauf

Loading altitude history...

Zweizeiliger Elementsatz

1 63507U 25071Q 26124.55874775 .00024913 00000-0 85034-3 0 9991
2 63507 53.1581 240.3842 0001132 101.9501 258.1627 15.30204377 61306
Epoch: 4. Mai 2026 • Age: 7 hours

Aktueller Status

Höhe 476.2 km
Geschwindigkeit 7.63 km/s
Subsatellitenpunkt -2.23°S, 109.18°W
Startdatum 7. Apr. 2025
Alter 1 years
Typ internet

Technische Details

Klassifizierung Payload
Masse 575.00 kg
Trockenmasse 530.00 kg
Gesamtmasse 575.00 kg
Länge 0.30 m
Durchmesser 4.10 m
Spannweite 29.00 m
Form Box + pan
Hersteller SPXS
Bus-Typ Starlink V2MO
Phasenstatus In Orbit
Besitzer/Staat SPXS/US

Most Searched